Regional Weather Roundup
Issued by NWS

Home | Current Version | Previous Version | Text Only | Print | Product List | Glossary On
Versions: 1 2 3 4 5 6 7 8 9 10 11 12 13 14 15 16 17 18 19 20 21 22 23 24 25 26 27 28 29 30 31 32 33 34 35 36 37 38 39 40 41 42 43 44 45 46 47 48 49 50
000
ASUS44 KLUB 250601
RWRTX
WEST TEXAS WEATHER ROUNDUP
NATIONAL WEATHER SERVICE LUBBOCK TX
100 AM CDT SAT OCT 25 2014

NOTE: "FAIR" INDICATES FEW OR NO CLOUDS BELOW 12,000 FEET WITH NO
SIGNIFICANT WEATHER AND/OR OBSTRUCTIONS TO VISIBILITY.

TXZ004-006>008-010-012-014-016-OKZ002-250700-
TEXAS PANHANDLE/OKLAHOMA PANHANDLE

CITY           SKY/WX    TMP DP  RH WIND       PRES   REMARKS
AMARILLO       CLEAR     56  47  71 SW8       30.15F
BORGER         CLEAR     65  44  46 S5        30.12S
CANADIAN       CLEAR     55  53  93 CALM      30.08F
DALHART        CLEAR     52  40  63 SW9       30.17S
DUMAS            N/A     55  41  60 SW10      30.15S
GUYMON         CLEAR     58  41  53 SW5       30.10S
HEREFORD       CLEAR     52  45  77 SW3       30.18S
PAMPA          CLEAR     58  48  68 S10       30.14S
$$

TXZ026-029-035-045-048-250700-
SOUTHERN PANHANDLE/SOUTH PLAINS/ROLLING PLAINS

CITY           SKY/WX    TMP DP  RH WIND       PRES   REMARKS
CHILDRESS      CLEAR     68  56  65 SW8       30.09F
LUBBOCK        CLEAR     61  50  67 SW8       30.16F
SNYDER         CLEAR     65  54  67 S8        30.16S
$$

TXZ052-054-060>062-072-078-127-140-154-169-250700-
PERMIAN BASIN/CONCHO VALLEY/BIG COUNTRY/EDWARDS PLATEAU

CITY           SKY/WX    TMP DP  RH WIND       PRES   REMARKS
ABILENE        CLEAR     71  56  58 S9        30.13S
BIG SPRING     CLEAR     64  55  74 SE8       30.19S
JUNCTION       CLEAR     64  55  72 CALM      30.17S
MIDLAND        CLEAR     67  54  63 S7        30.17S
ODESSA         CLEAR     67  54  63 S9        30.18S
SAN ANGELO     CLEAR     66  57  72 S8        30.15S
SONORA         CLEAR     57  54  88 CALM      30.22S
SWEETWATER     CLEAR     70  54  56 S13       30.18S
WINK           CLEAR     65  54  67 SE8       30.14S
$$

TXZ055-058-074-075-080-082-250700-
FAR WEST/SOUTHWEST MOUNTAINS/TRANS PECOS

CITY           SKY/WX    TMP DP  RH WIND       PRES   REMARKS
ALPINE         CLEAR     61  54  78 S7        30.32S
DRYDEN           N/A     66  62  87 N6        30.15F
EL PASO        PTCLDY    67  48  50 CALM      30.20S
FORT STOCKTON  CLEAR     65  58  78 S10       30.18S
MARFA          CLEAR     52  48  87 CALM      30.31S
PECOS          CLEAR     62  53  71 CALM      30.15S
PRESIDIO       FAIR      68  52  56 N8        30.16F
$$

TXZ014-016-019-021>030-083-250700
TEXAS TECH WEST TEXAS MESONET/TEXAS PANHANDLE/NORTHERN SOUTH PLAINS

CITY           SKY/WX    TMP DP  RH WIND       PRES   REMARKS
ABERNATHY 5ENE   N/A     54  50  86 S6        30.18R
AMARILLO 9NNE    N/A     54  45  72 SE5       30.14S
AMARILLO 7SSE    N/A     51  46  83 SW6       30.17S
AMHERST 1NE      N/A     59  47  64 SW7       30.18S
BOOTLEG 11WNW    N/A     58  44  60 SW12      30.22S
CANADIAN 6E      N/A     59  53  82 CALM      30.07F
CAPROCK CYN SP   N/A     70  52  53 SW14      30.12F
CHILDRESS 2NNE   N/A     70  56  62 S12       30.08S
CLARENDON 2WSW   N/A     63  53  69 SW10      30.12S
DIMMITT 2NE      N/A     59  44  57 SW10      30.18S
FLOYDADA 2NNE    N/A     59  51  75 S8        30.16S
FRIONA 2NE       N/A     55  43  64 SW7       30.20S
GOODLETT 3W      N/A     64  55  73 SW7       30.07R
HART 3N          N/A     53  46  78 W7        30.18S
HEREFORD 2NW     N/A     53  41  62 SW7       30.18S
MCLEAN 1E        N/A     64  53  65 S9        30.11S
MEMPHIS 1NE      N/A     60  56  87 N1        30.09S
MULESHOE 2SSW    N/A     48  42  82 W6        30.19S
OLTON 6S         N/A     52  47  83 S7        30.17S
PALO DURO SP     N/A     60  46  59 S2        30.17S
PAMPA 2E         N/A     61  49  65 S8        30.13F
PLAINVIEW 1S     N/A     56  51  82 S1        30.16S
SILVERTON 7ESE   N/A     59  53  81 SW8       30.16S
TULIA 2ENE       N/A     56  50  78 SW7       30.16S
TURKEY 2WSW      N/A     65  55  69 SW12      30.10S
UMBARGER 3NNE    N/A     55  44  67 SW9       30.18S
$$

TXZ033>036-039>041-045>048-250700
TEXAS TECH WEST TEXAS MESONET/SOUTH PLAINS

CITY           SKY/WX    TMP DP  RH WIND       PRES   REMARKS
AIKEN 3WSW       N/A     56  52  88 S6        30.18S
ANDREWS 2NE      N/A     64  51  64 S7        30.18S
ANTON 6SSW       N/A     56  50  81 S5        30.17S
BROWNFIELD 2S    N/A     58  49  72 W7        30.17F
DENVR CTY 7WNW   N/A     58  48  68 SW7       30.19S
GAIL 2ESE        N/A     63  53  70 SW7       30.15R
LAMESA 2SE       N/A     56  50  79 S6        30.17S
LEVELLAND 4S     N/A     61  47  61 SW9       30.18S
LUBBOCK 3WNW     N/A     63  49  60 SW5       30.17S
MORTON 1ENE      N/A     59  47  63 SW6       30.19S
ODONNELL 1N      N/A     61  48  62 S6        30.17S
PLAINS 3N        N/A     58  46  64 SW6       30.20S
RALLS 1SE        N/A     60  51  73 SW7       30.17S
REESE CENTER     N/A     56  49  77 SW7       30.17S
SEMINOLE 2NNE    N/A     59  50  72 SW2       30.17S
SLATON 2NE       N/A     62  49  63 SW9       30.16S
SNYDER 3E        N/A     64  55  71 S8        30.15S
SUNDOWN 8SW      N/A     56  46  69 SW10      30.19S
TAHOKA 3NNE      N/A     58  49  71 S6        30.16S
WOLFFORTH 6SSW   N/A     57  52  82 SW7       30.17S
$$

TXZ031-032-036>038-042>044-250700-
TEXAS TECH WEST TEXAS MESONET/ROLLING PLAINS

CITY           SKY/WX    TMP DP  RH WIND       PRES   REMARKS
ASPERMONT 3NE    N/A     64  55  72 S8        30.10S
FLUVANNA 3WNW    N/A     61  53  75 S6        30.16R
GRAHAM 5SSW      N/A     69  48  46 SE6       30.16
GUTHRIE 10WSW    N/A     64  55  72 SW5       30.10S
HASKELL 1NW      N/A     67  52  59 S7        30.09S
JAYTON 1SSE      N/A     66  55  66 S5        30.11S
KNOX CITY 3NW    N/A     67  53  61 SW7       30.09S
LK A HENRY 1NW   N/A     67  54  62 S7        30.13S
ODELL 4ENE       N/A     72  56  55 S9        30.07R
PADUCAH 10SW     N/A     66  56  69 SW10      30.09F
POST 1NE         N/A     68  50  51 S6        30.14S
RRING SPRGS 3N   N/A     61  54  76 SW6       30.13S
SEYMOUR 3NW      N/A     64  54  70 S3        30.07S
SPUR 1W          N/A     57  54  89 NW2       30.11F
WEINERT 2NNE     N/A     70  54  56 S9        30.09S
WHITE RVR 6NE    N/A     69  53  56 SW3       30.14S
$$

TXZ052-054-060>062-072-078-127-140-154-169-250700-
TEXAS TECH WEST TEXAS MESONET/PERMIAN BASIN/
CONCHO VALLEY/BIG COUNTRY/EDWARDS PLATEAU

CITY           SKY/WX    TMP DP  RH WIND       PRES   REMARKS
COYANOSA 2N      N/A     67  58  72 SE9       30.15S
JUNCTION 1SSW    N/A     62  56  81 S5        30.17F
MERTZON 3NNE     N/A     65  57  76 S9        30.17S
SAN ANGELO 7NW   N/A     66  55  65 S2        30.15S
STRLNG CT 4WSW   N/A     68  57  67 S13       30.16F
ST LAWRNCE 5SW   N/A     65  55  71 S8        30.18S
SWEETWATR 11SW   N/A     65  54  66 SW2       30.17S
WALL 1E          N/A     69  56  64 S10       30.15S
$$

TXZ055-058-074-075-080-082-250700-
TEXAS TECH WEST TEXAS MESONET/FAR WEST/SOUTHWEST MOUNTAINS/TRANS PECOS

CITY           SKY/WX    TMP DP  RH WIND       PRES   REMARKS
PRSMN GAP BBNP   N/A     70  59  67 N10       30.18F
GUADLPE MTN NP   N/A     63  40  43 W10       30.31F
$$



USA.gov is the U.S. government's official web portal to all federal, state and local government web resources and services.